DW2973 Weather Reports


time (UTC)temp
F
wind
direction
speed
knots
gust
knots
rain 1hr
in
rain 24hr
in
rain mn
in
humidity
%
barometer
mb
20260505023008 46 328 0.0 0.0 0.00 0.00 0.00 83 1010.3
20260505021507 46 323 0.0 0.0 0.00 0.00 0.00 84 1010.4
20260505020005 46 315 0.0 0.0 0.00 0.00 0.00 83 1010.6
20260505014504 46 331 0.0 0.0 0.00 0.00 0.00 83 1010.6
20260505013016 46 332 0.0 0.0 0.00 0.00 0.00 83 1010.5
20260505011503 46 336 0.0 0.0 0.00 0.00 0.00 83 1010.6
20260505010001 46 329 0.0 0.0 0.00 0.00 0.00 82 1010.7
20260505004601 46 336 0.0 0.0 0.00 0.00 0.00 82 1010.8
20260505003100 46 350 0.0 0.0 0.00 0.00 0.00 82 1010.8
20260505001559 47 277 0.0 0.0 0.00 0.00 0.00 82 1010.8
20260505000107 47 309 0.0 0.0 0.00 0.00 0.00 82 1010.8
20260504234627 47 311 0.0 0.0 0.00 0.00 0.00 82 1010.7
20260504233057 47 325 0.0 0.0 0.00 0.00 0.00 83 1010.6
20260504231602 47 323 0.0 0.0 0.00 0.00 0.00 82 1010.8
20260504230052 47 323 0.0 0.0 0.00 0.00 0.00 82 1010.9
20260504224550 48 322 0.0 0.0 0.00 0.00 0.00 81 1010.9
20260504223050 48 313 0.0 0.0 0.00 0.00 0.00 81 1010.8
20260504221557 48 10 0.0 0.0 0.00 0.00 0.00 81 1010.8
20260504220046 48 336 0.0 0.0 0.00 0.00 0.00 81 1011.0
20260504214545 48 291 0.0 0.0 0.00 0.00 0.06 82 1011.0
20260504213043 48 344 0.0 0.0 0.00 0.00 0.06 82 1010.9
20260504211549 49 344 0.0 0.0 0.00 0.00 0.06 82 1011.0
20260504210100 49 344 0.0 0.0 0.00 0.00 0.06 81 1011.0
20260504204548 49 344 0.0 0.0 0.00 0.00 0.06 83 1010.9
20260504203045 49 348 0.0 0.0 0.00 0.00 0.06 83 1010.9
20260504201545 49 348 0.0 0.0 0.00 0.00 0.06 82 1010.7
20260504200036 50 348 0.0 0.0 0.00 0.00 0.06 81 1010.8
20260504194556 50 348 0.0 0.0 0.00 0.00 0.06 80 1010.7
20260504193033 51 336 0.0 0.0 0.00 0.00 0.06 79 1010.7
20260504191542 52 250 0.0 0.0 0.00 0.00 0.06 76 1010.6
20260504190035 53 250 0.0 0.0 0.00 0.00 0.06 73 1010.5
20260504184537 54 250 0.0 0.0 0.00 0.00 0.06 70 1010.3
20260504183030 55 250 0.0 0.0 0.00 0.00 0.06 67 1010.2
20260504181529 56 248 0.0 0.0 0.00 0.00 0.06 65 1010.2
20260504180038 56 248 0.0 0.0 0.00 0.00 0.06 64 1010.2
20260504174528 57 248 0.0 0.0 0.00 0.00 0.06 63 1010.1
20260504173028 57 245 0.0 0.0 0.00 0.00 0.06 61 1010.2
20260504171528 59 326 0.0 0.0 0.00 0.00 0.06 60 1010.2
20260504081533 51 269 0.0 0.0 0.00 0.00 0.06 91 1008.2
20260504050017 51 355 0.0 0.0 0.00 0.00 0.06 93 1005.6
20260504044515 51 355 0.0 0.0 0.00 0.00 0.06 93 1005.3
20260504043015 51 355 0.0 0.0 0.00 0.00 0.06 93 1005.2
20260504041514 51 360 0.0 0.0 0.00 0.00 0.06 93 1005.1
20260504040013 52 322 0.0 0.0 0.00 0.00 0.06 93 1005.1
20260504034510 53 355 0.0 0.0 0.00 0.00 0.06 93 1005.0
20260504033009 54 236 0.0 0.0 0.00 0.00 0.06 93 1005.0
20260504031509 54 248 1.7 0.0 0.00 0.00 0.06 93 1005.1
20260504030007 54 228 3.5 0.0 0.00 0.00 0.06 93 1005.0
20260504024505 54 242 1.7 0.0 0.00 0.00 0.06 94 1005.0